Darstellungsparameter: Aktuell verwendete Einstellungen:
Skalierung der Graphiken ... ?
xyx+y,   Skalierungsfaktor:      Skalierung: Modus: x, Faktor: 1
Darstellungszeitraum ... ?
Vom - - bis: - -   Zeitraum: 07.10.2010 - 13.10.2010
Min/Max/Avg-Anzeige ... ?
Zeige MMA aktuell
Zeige MMA Monat
Zeige MMA alles
Zeige --A aktuell
Zeige --A Monat
Zeige --A alles
Keine MMA-Anzeige
MMA:
Average (ber die Originaldaten)
MMA-Basis: 07.10.2010 - 13.10.2010
Quicknavigation für Darstellung... ?
Tage:      1T, 2T, 3T, 5T -1T -2T -3T -5T +1T +2T +3T +5T
Wochen: 1W, 2W, 3W -1W -2W -3W +1W +2W +3W
Monate: 1M, 3M, 6M -1M -3M -6M +1M +3M +6M
Jahre:    1J, 3J, 5J, 10J -1J -3J -5J -10J +1J +3J +5J +10J
Nutze für die Darstellung ... ?
Originaldaten oder Mittelwerte auf ...
Stundenbasis Tagesbasis Wochenbasis
Monatsbasis Jahresbasis      Datenbasis: Original-Daten
Darstellen als:
Statistik (Auto) Statistik J:M      Darstellung:
Zur Graphik,    zurück zur Übersicht aller Sensoren.
 
Tabellarische Datenbersicht: ?
 
Sensor: Nr:Datum:Temp:Abs-Feuchte:Windchill:Wind:
Aussen-T/F 1 07-10-2010 00:07:01 14.5 C 10.2 g/m*3 14.5 C 0 km/h
2 07-10-2010 00:19:01 14.3 C 10.2 g/m*3 14.3 C 0 km/h
3 07-10-2010 00:31:02 14.2 C 10.14 g/m*3 14.2 C 0 km/h
4 07-10-2010 00:43:02 14.1 C 10.19 g/m*3 14.1 C 0 km/h
5 07-10-2010 00:55:01 14 C 10.13 g/m*3 14 C 0 km/h
6 07-10-2010 01:07:01 14 C 10.25 g/m*3 14 C 0 km/h
7 07-10-2010 01:19:01 14.4 C 10.63 g/m*3 14.4 C 0 km/h
8 07-10-2010 01:31:02 14.3 C 10.57 g/m*3 14.3 C 0 km/h
9 07-10-2010 01:43:02 14.2 C 10.5 g/m*3 14.2 C 0 km/h
10 07-10-2010 01:55:01 14.3 C 10.57 g/m*3 14.3 C 0 km/h
11 07-10-2010 02:07:02 14.3 C 10.57 g/m*3 14.3 C 0 km/h
12 07-10-2010 02:19:01 14.2 C 10.38 g/m*3 14.2 C 0 km/h
13 07-10-2010 02:31:01 14.2 C 10.38 g/m*3 14.2 C 0 km/h
14 07-10-2010 02:43:01 14.3 C 10.44 g/m*3 14.3 C 0 km/h
15 07-10-2010 02:55:01 14.2 C 10.38 g/m*3 14.2 C 0 km/h
16 07-10-2010 03:07:01 14.2 C 10.38 g/m*3 14.2 C 0 km/h
17 07-10-2010 03:19:02 14.2 C 10.38 g/m*3 14.2 C 0 km/h
18 07-10-2010 03:31:01 14 C 10.25 g/m*3 14 C 0 km/h
19 07-10-2010 03:43:01 14 C 10.37 g/m*3 14 C 0 km/h
20 07-10-2010 03:55:01 14 C 10.37 g/m*3 14 C 0 km/h
21 07-10-2010 04:07:02 14.5 C 10.7 g/m*3 14.5 C 0 km/h
22 07-10-2010 04:19:01 13.9 C 10.43 g/m*3 13.9 C 0 km/h
23 07-10-2010 04:31:01 13.9 C 10.43 g/m*3 13.9 C 0 km/h
24 07-10-2010 04:43:01 13.5 C 10.06 g/m*3 13.5 C 0 km/h
25 07-10-2010 04:55:01 13.3 C 9.94 g/m*3 13.3 C 0 km/h
Sensor: Nr:Datum:Temp:Abs-Feuchte:Windchill:Wind:
Aussen-T/F 26 07-10-2010 05:07:01 13.1 C 9.93 g/m*3 13.1 C 0 km/h
27 07-10-2010 05:20:01 13 C 9.87 g/m*3 13 C 0 km/h
28 07-10-2010 05:31:01 13.1 C 10.04 g/m*3 13.1 C 0 km/h
29 07-10-2010 05:43:01 13.6 C 10.47 g/m*3 13.6 C 0 km/h
30 07-10-2010 05:56:01 13.7 C 10.54 g/m*3 13.7 C 0 km/h
31 07-10-2010 06:07:01 13.8 C 10.48 g/m*3 13.8 C 0 km/h
32 07-10-2010 06:19:02 13.8 C 10.48 g/m*3 13.8 C 0 km/h
33 07-10-2010 06:32:01 13.8 C 10.48 g/m*3 13.8 C 0 km/h
34 07-10-2010 06:44:01 13.9 C 10.55 g/m*3 13.9 C 0 km/h
35 07-10-2010 06:55:02 13.9 C 10.55 g/m*3 13.9 C 0 km/h
36 07-10-2010 07:08:01 13.8 C 10.48 g/m*3 13.8 C 0 km/h
37 07-10-2010 07:20:01 14 C 10.49 g/m*3 14 C 0 km/h
38 07-10-2010 07:31:02 14.1 C 10.56 g/m*3 14.1 C 0 km/h
39 07-10-2010 07:43:02 14.4 C 10.75 g/m*3 14.4 C 0 km/h
40 07-10-2010 07:56:01 14.3 C 10.69 g/m*3 14.3 C 0 km/h
41 07-10-2010 08:08:01 14.4 C 10.75 g/m*3 14.4 C 0 km/h
42 07-10-2010 08:20:01 14.6 C 10.89 g/m*3 14.6 C 0 km/h
43 07-10-2010 08:32:02 14.7 C 10.95 g/m*3 14.7 C 0 km/h
44 07-10-2010 08:44:02 14.8 C 11.02 g/m*3 14.8 C 0 km/h
45 07-10-2010 08:56:01 14.8 C 10.89 g/m*3 14.8 C 0 km/h
46 07-10-2010 09:08:02 14.8 C 10.77 g/m*3 14.8 C 0 km/h
47 07-10-2010 09:20:01 14.7 C 10.45 g/m*3 14.7 C 0 km/h
48 07-10-2010 09:32:01 14.8 C 10.51 g/m*3 14.8 C 0 km/h
49 07-10-2010 09:44:01 15.3 C 10.71 g/m*3 15.3 C 0 km/h
50 07-10-2010 09:56:01 15.7 C 10.57 g/m*3 15.7 C 0 km/h
Sensor: Nr:Datum:Temp:Abs-Feuchte:Windchill:Wind:
Aussen-T/F 51 07-10-2010 10:08:01 16.2 C 10.48 g/m*3 16.2 C 0 km/h
52 07-10-2010 10:20:02 16.1 C 10.14 g/m*3 16.1 C 0 km/h
53 07-10-2010 10:32:01 16.2 C 10.34 g/m*3 16.2 C 0 km/h
54 07-10-2010 10:44:01 16.2 C 10.34 g/m*3 16.2 C 0 km/h
55 07-10-2010 10:56:01 16.2 C 10.34 g/m*3 16.2 C 0 km/h
56 07-10-2010 11:08:01 16.7 C 10.52 g/m*3 16.7 C 0 km/h
57 07-10-2010 11:20:02 17.1 C 10.34 g/m*3 17.1 C 0 km/h
58 07-10-2010 11:32:01 17.3 C 10.31 g/m*3 17.3 C 0 km/h
59 07-10-2010 11:44:01 17.4 C 10.08 g/m*3 17.4 C 0 km/h
60 07-10-2010 11:56:02 17.8 C 10.32 g/m*3 17.8 C 0 km/h
61 07-10-2010 12:08:01 18.1 C 9.89 g/m*3 18.1 C 0 km/h
62 07-10-2010 12:20:01 18.3 C 10.01 g/m*3 18.3 C 0 km/h
63 07-10-2010 12:32:02 18.3 C 10.01 g/m*3 18.3 C 0 km/h
64 07-10-2010 12:44:02 18.7 C 10.09 g/m*3 18.7 C 0 km/h
65 07-10-2010 12:56:01 18.6 C 9.87 g/m*3 18.6 C 0 km/h
66 07-10-2010 13:08:02 18.8 C 10.15 g/m*3 18.8 C 0 km/h
67 07-10-2010 13:20:01 19.2 C 10.06 g/m*3 19.2 C 0 km/h
68 07-10-2010 13:32:02 19.3 C 9.62 g/m*3 19.3 C 0 km/h
69 07-10-2010 13:44:02 19.5 C 9.73 g/m*3 19.5 C 0 km/h
70 07-10-2010 13:56:01 19.5 C 9.57 g/m*3 19.5 C 0 km/h
71 07-10-2010 14:08:02 19.7 C 9.85 g/m*3 19.7 C 0 km/h
72 07-10-2010 14:20:01 19.8 C 9.91 g/m*3 19.8 C 0 km/h
73 07-10-2010 14:32:01 19.7 C 9.68 g/m*3 19.7 C 0 km/h
74 07-10-2010 14:44:01 19.9 C 9.79 g/m*3 19.9 C 0 km/h
75 07-10-2010 14:56:01 20.3 C 9.67 g/m*3 20.3 C 0 km/h
Sensor: Nr:Datum:Temp:Abs-Feuchte:Windchill:Wind:
Aussen-T/F 76 07-10-2010 15:08:01 20.5 C 9.43 g/m*3 20.5 C 0 km/h
77 07-10-2010 15:20:01 20.8 C 9.6 g/m*3 20.8 C 0 km/h
78 07-10-2010 15:32:01 20.7 C 9.54 g/m*3 20.7 C 0 km/h
79 07-10-2010 15:44:01 20.4 C 9.38 g/m*3 20.4 C 0 km/h
80 07-10-2010 15:56:01 20.1 C 9.56 g/m*3 20.1 C 0 km/h
81 07-10-2010 16:08:01 20 C 9.68 g/m*3 20 C 0 km/h
82 07-10-2010 16:20:02 20.4 C 9.55 g/m*3 20.4 C 0 km/h
83 07-10-2010 16:32:01 20.1 C 9.39 g/m*3 20.1 C 0 km/h
84 07-10-2010 16:44:01 19.6 C 9.45 g/m*3 19.6 C 0 km/h
85 07-10-2010 16:56:02 19.6 C 9.28 g/m*3 19.6 C 0 km/h
86 07-10-2010 17:08:01 19.6 C 9.45 g/m*3 19.6 C 0 km/h
87 07-10-2010 17:20:01 19.3 C 9.45 g/m*3 19.3 C 0 km/h
88 07-10-2010 17:32:02 19.2 C 9.56 g/m*3 19.2 C 0 km/h
89 07-10-2010 17:44:02 19 C 9.45 g/m*3 19 C 0 km/h
90 07-10-2010 17:56:01 18.7 C 9.93 g/m*3 18.7 C 0 km/h
91 07-10-2010 18:08:02 18.3 C 10.01 g/m*3 18.3 C 0 km/h
92 07-10-2010 18:20:01 18.1 C 10.2 g/m*3 18.1 C 0 km/h
93 07-10-2010 18:32:02 17.9 C 10.23 g/m*3 17.9 C 0 km/h
94 07-10-2010 18:44:02 17.7 C 10.26 g/m*3 17.7 C 0 km/h
95 07-10-2010 18:56:01 17.4 C 10.37 g/m*3 17.4 C 0 km/h
96 07-10-2010 19:08:02 17.1 C 10.34 g/m*3 17.1 C 0 km/h
97 07-10-2010 19:20:01 17 C 10.42 g/m*3 17 C 0 km/h
98 07-10-2010 19:32:01 16.8 C 10.44 g/m*3 16.8 C 0 km/h
99 07-10-2010 19:44:01 17 C 10.42 g/m*3 17 C 0 km/h
100 07-10-2010 19:56:01 16.6 C 10.31 g/m*3 16.6 C 0 km/h
Sensor: Nr:Datum:Temp:Abs-Feuchte:Windchill:Wind:
Aussen-T/F 101 07-10-2010 20:08:01 16.5 C 10.39 g/m*3 16.5 C 0 km/h
102 07-10-2010 20:20:02 16.4 C 10.33 g/m*3 16.4 C 0 km/h
103 07-10-2010 20:32:01 16.2 C 10.34 g/m*3 16.2 C 0 km/h
104 07-10-2010 20:44:01 16.2 C 10.34 g/m*3 16.2 C 0 km/h
105 07-10-2010 20:56:02 16.2 C 10.34 g/m*3 16.2 C 0 km/h
106 07-10-2010 21:08:01 16.3 C 10.13 g/m*3 16.3 C 0 km/h
107 07-10-2010 21:20:02 16.3 C 10.27 g/m*3 16.3 C 0 km/h
108 07-10-2010 21:32:01 16.2 C 10.2 g/m*3 16.2 C 0 km/h
109 07-10-2010 21:44:01 16.2 C 10.07 g/m*3 16.2 C 0 km/h
110 07-10-2010 21:56:02 16.1 C 10.01 g/m*3 16.1 C 0 km/h
111 07-10-2010 22:08:01 16 C 9.95 g/m*3 16 C 0 km/h
112 07-10-2010 22:20:02 16 C 9.95 g/m*3 16 C 0 km/h
113 07-10-2010 22:32:02 16 C 9.95 g/m*3 16 C 0 km/h
114 07-10-2010 22:44:02 16 C 9.81 g/m*3 16 C 0 km/h
115 07-10-2010 22:56:02 16 C 9.67 g/m*3 16 C 0 km/h
116 07-10-2010 23:08:02 16.1 C 9.73 g/m*3 16.1 C 0 km/h
117 07-10-2010 23:20:02 16 C 9.67 g/m*3 16 C 0 km/h
118 07-10-2010 23:32:02 16 C 9.67 g/m*3 16 C 0 km/h
119 07-10-2010 23:44:02 16 C 9.81 g/m*3 16 C 0 km/h
120 07-10-2010 23:56:02 16 C 9.81 g/m*3 16 C 0 km/h
121 08-10-2010 00:08:03 15.8 C 9.83 g/m*3 15.8 C 0 km/h
122 08-10-2010 00:20:03 15.9 C 10.02 g/m*3 15.9 C 0 km/h
123 08-10-2010 00:32:03 15.8 C 9.96 g/m*3 15.8 C 0 km/h
124 08-10-2010 00:44:03 15.8 C 9.96 g/m*3 15.8 C 0 km/h
125 08-10-2010 00:56:03 15.8 C 9.69 g/m*3 15.8 C 0 km/h
Sensor: Nr:Datum:Temp:Abs-Feuchte:Windchill:Wind:
Aussen-T/F 126 08-10-2010 01:08:03 15.7 C 9.77 g/m*3 15.7 C 0 km/h
127 08-10-2010 01:20:03 15.7 C 9.77 g/m*3 15.7 C 0 km/h
128 08-10-2010 01:32:03 15.6 C 9.71 g/m*3 15.6 C 0 km/h
129 08-10-2010 01:44:03 15.5 C 9.52 g/m*3 15.5 C 0 km/h
130 08-10-2010 01:56:03 15.6 C 9.58 g/m*3 15.6 C 0 km/h
131 08-10-2010 02:08:03 15.6 C 9.58 g/m*3 15.6 C 0 km/h
132 08-10-2010 02:20:03 15.5 C 9.39 g/m*3 15.5 C 0 km/h
133 08-10-2010 02:32:03 15.4 C 9.33 g/m*3 15.4 C 0 km/h
134 08-10-2010 02:44:03 15.4 C 9.33 g/m*3 15.4 C 0 km/h
135 08-10-2010 02:56:03 15.3 C 9.14 g/m*3 15.3 C 0 km/h
136 08-10-2010 03:08:03 15.2 C 8.96 g/m*3 15.2 C 0 km/h
137 08-10-2010 03:20:03 15 C 8.98 g/m*3 15 C 0 km/h
138 08-10-2010 03:32:03 14.9 C 8.79 g/m*3 14.9 C 0 km/h
139 08-10-2010 03:44:03 14.8 C 8.49 g/m*3 14.8 C 0 km/h
140 08-10-2010 03:56:03 14.7 C 8.56 g/m*3 14.7 C 0 km/h
141 08-10-2010 04:08:03 14.7 C 8.56 g/m*3 14.7 C 0 km/h
142 08-10-2010 04:20:03 14.6 C 8.51 g/m*3 14.6 C 0 km/h
143 08-10-2010 04:32:04 14.5 C 8.58 g/m*3 14.5 C 0 km/h
144 08-10-2010 04:44:04 14.4 C 8.53 g/m*3 14.4 C 0 km/h
145 08-10-2010 04:56:04 14.4 C 8.65 g/m*3 14.4 C 0 km/h
146 08-10-2010 05:08:04 14.3 C 8.72 g/m*3 14.3 C 0 km/h
147 08-10-2010 05:20:04 14.3 C 8.85 g/m*3 14.3 C 0 km/h
148 08-10-2010 05:32:04 14.3 C 8.85 g/m*3 14.3 C 0 km/h
149 08-10-2010 05:44:04 14.1 C 8.74 g/m*3 14.1 C 0 km/h
150 08-10-2010 05:56:04 14.2 C 8.91 g/m*3 14.2 C 0 km/h
Sensor: Nr:Datum:Temp:Abs-Feuchte:Windchill:Wind:
Aussen-T/F 151 08-10-2010 06:08:04 14.1 C 8.86 g/m*3 14.1 C 0 km/h
152 08-10-2010 06:20:04 14 C 8.93 g/m*3 14 C 0 km/h
153 08-10-2010 06:32:04 14 C 8.93 g/m*3 14 C 0 km/h
154 08-10-2010 06:44:04 13.9 C 8.99 g/m*3 13.9 C 0 km/h
155 08-10-2010 06:56:04 13.9 C 9.11 g/m*3 13.9 C 0 km/h
156 08-10-2010 07:08:04 13.9 C 9.11 g/m*3 13.9 C 0 km/h
157 08-10-2010 07:20:01 14 C 9.17 g/m*3 14 C 0 km/h
158 08-10-2010 07:32:01 14.1 C 9.22 g/m*3 14.1 C 0 km/h
159 08-10-2010 07:44:01 14.1 C 9.1 g/m*3 14.1 C 0 km/h
160 08-10-2010 07:56:01 14 C 9.05 g/m*3 14 C 0 km/h
161 08-10-2010 08:08:02 14 C 9.05 g/m*3 14 C 0 km/h
162 08-10-2010 08:20:02 14.1 C 9.1 g/m*3 14.1 C 0 km/h
163 08-10-2010 08:32:01 14.2 C 9.28 g/m*3 14.2 C 0 km/h
164 08-10-2010 08:44:01 14.3 C 9.34 g/m*3 14.3 C 0 km/h
165 08-10-2010 08:56:02 14.4 C 9.39 g/m*3 14.4 C 0 km/h
166 08-10-2010 09:08:01 14.4 C 9.27 g/m*3 14.4 C 0 km/h
167 08-10-2010 09:20:01 14.5 C 9.33 g/m*3 14.5 C 0 km/h
168 08-10-2010 09:32:02 14.6 C 9.51 g/m*3 14.6 C 0 km/h
169 08-10-2010 09:44:02 14.7 C 9.44 g/m*3 14.7 C 0 km/h
170 08-10-2010 09:56:02 14.8 C 9.5 g/m*3 14.8 C 0 km/h
171 08-10-2010 10:08:01 14.9 C 9.43 g/m*3 14.9 C 0 km/h
172 08-10-2010 10:20:02 15.1 C 9.42 g/m*3 15.1 C 0 km/h
173 08-10-2010 10:32:02 15.3 C 9.53 g/m*3 15.3 C 0 km/h
174 08-10-2010 10:44:02 15.4 C 9.33 g/m*3 15.4 C 0 km/h
175 08-10-2010 10:56:02 15.7 C 9.63 g/m*3 15.7 C 0 km/h
Sensor: Nr:Datum:Temp:Abs-Feuchte:Windchill:Wind:
Aussen-T/F 176 08-10-2010 11:08:02 15.7 C 9.23 g/m*3 15.7 C 0 km/h
177 08-10-2010 11:20:02 15.8 C 9.42 g/m*3 15.8 C 0 km/h
178 08-10-2010 11:32:02 15.8 C 9.29 g/m*3 15.8 C 0 km/h
179 08-10-2010 11:44:02 15.9 C 9.21 g/m*3 15.9 C 0 km/h
180 08-10-2010 11:56:02 16.1 C 9.32 g/m*3 16.1 C 0 km/h
181 08-10-2010 12:08:02 16.3 C 9.43 g/m*3 16.3 C 0 km/h
182 08-10-2010 12:20:03 16.5 C 9.13 g/m*3 16.5 C 0 km/h
183 08-10-2010 12:32:02 16.6 C 9.04 g/m*3 16.6 C 0 km/h
184 08-10-2010 12:44:02 16.6 C 8.9 g/m*3 16.6 C 0 km/h
185 08-10-2010 12:56:02 16.7 C 8.95 g/m*3 16.7 C 0 km/h
186 08-10-2010 13:08:02 16.7 C 8.81 g/m*3 16.7 C 0 km/h
187 08-10-2010 13:20:02 17 C 8.83 g/m*3 17 C 0 km/h
188 08-10-2010 13:32:02 17 C 8.83 g/m*3 17 C 0 km/h
189 08-10-2010 13:44:02 17 C 8.54 g/m*3 17 C 0 km/h
190 08-10-2010 13:56:02 17 C 8.83 g/m*3 17 C 0 km/h
191 08-10-2010 14:08:02 17.6 C 9 g/m*3 17.6 C 0 km/h
192 08-10-2010 14:20:02 18.1 C 8.81 g/m*3 18.1 C 0 km/h
193 08-10-2010 14:32:02 18.6 C 8.75 g/m*3 18.6 C 0 km/h
194 08-10-2010 14:44:02 19.7 C 8.66 g/m*3 19.7 C 0 km/h
195 08-10-2010 14:56:02 19.8 C 8.54 g/m*3 19.8 C 0 km/h
196 08-10-2010 15:08:02 19.7 C 8.66 g/m*3 19.7 C 0 km/h
197 08-10-2010 15:20:01 19.9 C 8.25 g/m*3 19.9 C 0 km/h
198 08-10-2010 15:32:02 20.4 C 8.67 g/m*3 20.4 C 0 km/h
199 08-10-2010 15:44:02 20.6 C 8.59 g/m*3 20.6 C 0 km/h
200 08-10-2010 15:56:02 21 C 8.43 g/m*3 21 C 0 km/h
Sensor: Nr:Datum:Temp:Abs-Feuchte:Windchill:Wind:
Aussen-T/F 201 08-10-2010 16:08:02 22 C 8.73 g/m*3 22 C 0 km/h
202 08-10-2010 16:20:02 22.1 C 8.98 g/m*3 22.1 C 0 km/h
203 08-10-2010 16:32:02 22.5 C 9.19 g/m*3 22.5 C 0 km/h
204 08-10-2010 16:44:02 22.4 C 8.74 g/m*3 22.4 C 0 km/h
205 08-10-2010 16:56:02 22 C 9.12 g/m*3 22 C 0 km/h
206 08-10-2010 17:08:02 22.1 C 9.17 g/m*3 22.1 C 0 km/h
207 08-10-2010 17:20:03 22.1 C 9.17 g/m*3 22.1 C 0 km/h
208 08-10-2010 17:32:02 21.9 C 9.26 g/m*3 21.9 C 0 km/h
209 08-10-2010 17:44:02 21.6 C 9.29 g/m*3 21.6 C 0 km/h
210 08-10-2010 17:56:02 21.2 C 9.27 g/m*3 21.2 C 0 km/h
211 08-10-2010 18:08:02 20.6 C 9.49 g/m*3 20.6 C 0 km/h
212 08-10-2010 18:20:03 20 C 9.51 g/m*3 20 C 0 km/h
213 08-10-2010 18:32:02 19.3 C 9.62 g/m*3 19.3 C 0 km/h
214 08-10-2010 18:44:02 18.1 C 9.73 g/m*3 18.1 C 0 km/h
215 08-10-2010 18:56:02 17.3 C 9.87 g/m*3 17.3 C 0 km/h
216 08-10-2010 19:08:02 16.9 C 10.21 g/m*3 16.9 C 0 km/h
217 08-10-2010 19:20:02 16.1 C 10.01 g/m*3 16.1 C 0 km/h
218 08-10-2010 19:32:02 15.8 C 9.96 g/m*3 15.8 C 0 km/h
219 08-10-2010 19:44:02 15.4 C 9.85 g/m*3 15.4 C 0 km/h
220 08-10-2010 19:56:02 15.2 C 9.86 g/m*3 15.2 C 0 km/h
221 08-10-2010 20:08:02 15 C 9.75 g/m*3 15 C 0 km/h
222 08-10-2010 20:20:02 14.9 C 9.81 g/m*3 14.9 C 0 km/h
223 08-10-2010 20:32:02 14.8 C 9.88 g/m*3 14.8 C 0 km/h
224 08-10-2010 20:44:02 14.7 C 9.82 g/m*3 14.7 C 0 km/h
225 08-10-2010 20:56:02 14.5 C 9.7 g/m*3 14.5 C 0 km/h
Sensor: Nr:Datum:Temp:Abs-Feuchte:Windchill:Wind:
Aussen-T/F 226 08-10-2010 21:08:02 14.4 C 9.77 g/m*3 14.4 C 0 km/h
227 08-10-2010 21:20:02 14.2 C 9.65 g/m*3 14.2 C 0 km/h
228 08-10-2010 21:32:02 14.1 C 9.59 g/m*3 14.1 C 0 km/h
229 08-10-2010 21:44:02 14 C 9.65 g/m*3 14 C 0 km/h
230 08-10-2010 21:56:01 13.7 C 9.59 g/m*3 13.7 C 0 km/h
231 08-10-2010 22:08:01 13.5 C 9.59 g/m*3 13.5 C 0 km/h
232 08-10-2010 22:20:02 13.5 C 9.59 g/m*3 13.5 C 0 km/h
233 08-10-2010 22:33:02 13.3 C 9.47 g/m*3 13.3 C 0 km/h
234 08-10-2010 22:45:02 13.1 C 9.47 g/m*3 13.1 C 0 km/h
235 08-10-2010 22:57:02 13 C 9.41 g/m*3 13 C 0 km/h
236 08-10-2010 23:09:02 12.9 C 9.47 g/m*3 12.9 C 0 km/h
237 08-10-2010 23:21:02 12.7 C 9.35 g/m*3 12.7 C 0 km/h
238 08-10-2010 23:33:02 12.6 C 9.29 g/m*3 12.6 C 0 km/h
239 08-10-2010 23:45:02 12.4 C 9.18 g/m*3 12.4 C 0 km/h
240 08-10-2010 23:57:02 12.3 C 9.23 g/m*3 12.3 C 0 km/h
241 09-10-2010 00:09:02 12.1 C 9.12 g/m*3 12.1 C 0 km/h
242 09-10-2010 00:21:03 12 C 9.06 g/m*3 12 C 0 km/h
243 09-10-2010 00:33:03 11.9 C 9.11 g/m*3 11.9 C 0 km/h
244 09-10-2010 00:45:03 11.7 C 9.1 g/m*3 11.7 C 0 km/h
245 09-10-2010 00:57:03 11.8 C 9.16 g/m*3 11.8 C 0 km/h
246 09-10-2010 01:09:03 11.5 C 8.99 g/m*3 11.5 C 0 km/h
247 09-10-2010 01:21:03 11.5 C 8.99 g/m*3 11.5 C 0 km/h
248 09-10-2010 01:33:03 11.4 C 9.03 g/m*3 11.4 C 0 km/h
249 09-10-2010 01:45:03 11.2 C 8.92 g/m*3 11.2 C 0 km/h
250 09-10-2010 01:57:03 11.1 C 8.86 g/m*3 11.1 C 0 km/h
Sensor: Nr:Datum:Temp:Abs-Feuchte:Windchill:Wind:
Aussen-T/F 251 09-10-2010 02:09:03 11 C 8.81 g/m*3 11 C 0 km/h
252 09-10-2010 02:21:03 10.9 C 8.85 g/m*3 10.9 C 0 km/h
253 09-10-2010 02:33:03 10.7 C 8.64 g/m*3 10.7 C 0 km/h
254 09-10-2010 02:45:03 10.6 C 8.59 g/m*3 10.6 C 0 km/h
255 09-10-2010 02:57:03 10.5 C 8.53 g/m*3 10.5 C 0 km/h
256 09-10-2010 03:09:03 10.4 C 8.48 g/m*3 10.4 C 0 km/h
257 09-10-2010 03:21:03 10.3 C 8.43 g/m*3 10.3 C 0 km/h
258 09-10-2010 03:33:03 10.2 C 8.37 g/m*3 10.2 C 0 km/h
259 09-10-2010 03:45:03 10.2 C 8.47 g/m*3 10.2 C 0 km/h
260 09-10-2010 03:57:03 10.1 C 8.42 g/m*3 10.1 C 0 km/h
261 09-10-2010 04:09:03 10 C 8.36 g/m*3 10 C 0 km/h
262 09-10-2010 04:21:03 9.8 C 8.35 g/m*3 9.8 C 0 km/h
263 09-10-2010 04:33:04 9.8 C 8.35 g/m*3 9.8 C 0 km/h
264 09-10-2010 04:45:04 9.7 C 8.3 g/m*3 9.7 C 0 km/h
265 09-10-2010 04:57:04 9.6 C 8.24 g/m*3 9.6 C 0 km/h
266 09-10-2010 05:09:04 9.6 C 8.34 g/m*3 9.6 C 0 km/h
267 09-10-2010 05:21:04 9.5 C 8.28 g/m*3 9.5 C 0 km/h
268 09-10-2010 05:33:04 9.4 C 8.23 g/m*3 9.4 C 0 km/h
269 09-10-2010 05:45:04 9.5 C 8.28 g/m*3 9.5 C 0 km/h
270 09-10-2010 05:57:04 9.6 C 8.34 g/m*3 9.6 C 0 km/h
271 09-10-2010 06:09:04 9.6 C 8.34 g/m*3 9.6 C 0 km/h
272 09-10-2010 06:21:04 9.5 C 8.37 g/m*3 9.5 C 0 km/h
273 09-10-2010 06:33:04 9.4 C 8.32 g/m*3 9.4 C 0 km/h
274 09-10-2010 06:45:04 9.3 C 8.27 g/m*3 9.3 C 0 km/h
275 09-10-2010 06:57:04 9.3 C 8.27 g/m*3 9.3 C 0 km/h
Sensor: Nr:Datum:Temp:Abs-Feuchte:Windchill:Wind:
Aussen-T/F 276 09-10-2010 07:09:04 9.3 C 8.27 g/m*3 9.3 C 0 km/h
277 09-10-2010 07:21:04 9.2 C 8.22 g/m*3 9.2 C 0 km/h
278 09-10-2010 07:33:04 9.1 C 8.16 g/m*3 9.1 C 0 km/h
279 09-10-2010 07:45:04 9.2 C 8.22 g/m*3 9.2 C 0 km/h
280 09-10-2010 07:57:04 9.4 C 8.32 g/m*3 9.4 C 0 km/h
281 09-10-2010 08:09:04 9.2 C 8.22 g/m*3 9.2 C 0 km/h
282 09-10-2010 08:21:04 9.2 C 8.22 g/m*3 9.2 C 0 km/h
283 09-10-2010 08:33:02 9.2 C 8.22 g/m*3 9.2 C 0 km/h
284 09-10-2010 08:45:02 9.2 C 8.22 g/m*3 9.2 C 0 km/h
285 09-10-2010 08:57:02 9.2 C 8.22 g/m*3 9.2 C 0 km/h
286 09-10-2010 09:09:02 9.2 C 8.22 g/m*3 9.2 C 0 km/h
287 09-10-2010 09:21:02 9.2 C 8.22 g/m*3 9.2 C 0 km/h
288 09-10-2010 09:33:02 9.2 C 8.13 g/m*3 9.2 C 0 km/h
289 09-10-2010 09:45:02 9.3 C 8.27 g/m*3 9.3 C 0 km/h
290 09-10-2010 09:57:02 9.5 C 8.37 g/m*3 9.5 C 0 km/h
291 09-10-2010 10:09:02 9.7 C 8.48 g/m*3 9.7 C 0 km/h
292 09-10-2010 10:21:01 10 C 8.55 g/m*3 10 C 0 km/h
293 09-10-2010 10:33:02 10.5 C 8.92 g/m*3 10.5 C 0 km/h
294 09-10-2010 10:45:02 10.8 C 9.09 g/m*3 10.8 C 0 km/h
295 09-10-2010 10:57:02 11.2 C 9.33 g/m*3 11.2 C 0 km/h
296 09-10-2010 11:09:02 11.7 C 9.62 g/m*3 11.7 C 0 km/h
297 09-10-2010 11:21:02 12.1 C 9.65 g/m*3 12.1 C 0 km/h
298 09-10-2010 11:33:02 12.5 C 9.68 g/m*3 12.5 C 0 km/h
299 09-10-2010 11:45:02 12.9 C 9.47 g/m*3 12.9 C 0 km/h
300 09-10-2010 11:57:02 13.4 C 9.18 g/m*3 13.4 C 0 km/h
Sensor: Nr:Datum:Temp:Abs-Feuchte:Windchill:Wind:
Aussen-T/F 301 09-10-2010 12:09:02 13.7 C 8.76 g/m*3 13.7 C 0 km/h
302 09-10-2010 12:21:01 14.4 C 8.28 g/m*3 14.4 C 0 km/h
303 09-10-2010 12:33:02 14.7 C 7.81 g/m*3 14.7 C 0 km/h
304 09-10-2010 12:45:01 15.1 C 8.39 g/m*3 15.1 C 0 km/h
305 09-10-2010 12:57:01 15.5 C 7.67 g/m*3 15.5 C 0 km/h
306 09-10-2010 13:09:02 16.1 C 7.95 g/m*3 16.1 C 0 km/h
307 09-10-2010 13:21:02 16.6 C 8.05 g/m*3 16.6 C 0 km/h
308 09-10-2010 13:33:02 17 C 8.1 g/m*3 17 C 0 km/h
309 09-10-2010 13:45:02 17.6 C 7.8 g/m*3 17.6 C 0 km/h
310 09-10-2010 13:57:02 18.2 C 7.46 g/m*3 18.2 C 0 km/h
311 09-10-2010 14:09:01 19 C 6.84 g/m*3 19 C 0 km/h
312 09-10-2010 14:21:02 19.5 C 7.05 g/m*3 19.5 C 0 km/h
313 09-10-2010 14:33:02 20 C 7.09 g/m*3 20 C 0 km/h
314 09-10-2010 14:45:02 20.4 C 6.72 g/m*3 20.4 C 0 km/h
315 09-10-2010 14:57:02 20.9 C 7.47 g/m*3 20.9 C 0 km/h
316 09-10-2010 15:09:02 21.4 C 6.75 g/m*3 21.4 C 0 km/h
317 09-10-2010 15:21:02 21.8 C 6.72 g/m*3 21.8 C 0 km/h
318 09-10-2010 15:33:02 21.7 C 5.91 g/m*3 21.7 C 0 km/h
319 09-10-2010 15:45:02 22.1 C 6.25 g/m*3 22.1 C 0 km/h
320 09-10-2010 15:57:02 22.3 C 5.73 g/m*3 22.3 C 0 km/h
321 09-10-2010 16:09:01 22.4 C 6.16 g/m*3 22.4 C 0 km/h
322 09-10-2010 16:21:02 22.4 C 6.16 g/m*3 22.4 C 0 km/h
323 09-10-2010 16:33:02 22.4 C 6.36 g/m*3 22.4 C 0 km/h
324 09-10-2010 16:45:01 22 C 6.21 g/m*3 22 C 0 km/h
325 09-10-2010 16:57:01 21.6 C 6.26 g/m*3 21.6 C 0 km/h
Sensor: Nr:Datum:Temp:Abs-Feuchte:Windchill:Wind:
Aussen-T/F 326 09-10-2010 17:09:02 21.3 C 5.96 g/m*3 21.3 C 0 km/h
327 09-10-2010 17:21:01 21.3 C 6.15 g/m*3 21.3 C 0 km/h
328 09-10-2010 17:33:01 21.1 C 6.26 g/m*3 21.1 C 0 km/h
329 09-10-2010 17:45:01 20.6 C 6.26 g/m*3 20.6 C 0 km/h
330 09-10-2010 17:57:01 19.7 C 6.28 g/m*3 19.7 C 0 km/h
331 09-10-2010 18:09:02 19.1 C 6.23 g/m*3 19.1 C 0 km/h
332 09-10-2010 18:21:01 18.2 C 6.22 g/m*3 18.2 C 0 km/h
333 09-10-2010 18:33:01 17 C 6.37 g/m*3 17 C 0 km/h
334 09-10-2010 18:45:01 15.8 C 6.33 g/m*3 15.8 C 0 km/h
335 09-10-2010 18:57:01 15 C 6.03 g/m*3 15 C 0 km/h
336 09-10-2010 19:09:02 14.6 C 6.01 g/m*3 14.6 C 0 km/h
337 09-10-2010 19:21:02 14 C 6.03 g/m*3 14 C 0 km/h
338 09-10-2010 19:33:01 13.8 C 5.96 g/m*3 13.8 C 0 km/h
339 09-10-2010 19:45:02 13.4 C 6.28 g/m*3 13.4 C 0 km/h
340 09-10-2010 19:57:02 13.2 C 6.32 g/m*3 13.2 C 0 km/h
341 09-10-2010 20:09:01 13 C 6.35 g/m*3 13 C 0 km/h
342 09-10-2010 20:21:02 13.1 C 6.39 g/m*3 13.1 C 0 km/h
343 09-10-2010 20:33:01 13 C 6.46 g/m*3 13 C 0 km/h
344 09-10-2010 20:45:02 12.7 C 6.79 g/m*3 12.7 C 0 km/h
345 09-10-2010 20:57:02 12.4 C 6.88 g/m*3 12.4 C 0 km/h
346 09-10-2010 21:09:02 12 C 6.82 g/m*3 12 C 0 km/h
347 09-10-2010 21:21:02 11.7 C 7.01 g/m*3 11.7 C 0 km/h
348 09-10-2010 21:33:02 11.5 C 7.02 g/m*3 11.5 C 0 km/h
349 09-10-2010 21:45:01 11.2 C 7.1 g/m*3 11.2 C 0 km/h
350 09-10-2010 21:57:01 11 C 7.01 g/m*3 11 C 0 km/h
Sensor: Nr:Datum:Temp:Abs-Feuchte:Windchill:Wind:
Aussen-T/F 351 09-10-2010 22:09:01 11 C 7.01 g/m*3 11 C 0 km/h
352 09-10-2010 22:21:02 10.8 C 7.12 g/m*3 10.8 C 0 km/h
353 09-10-2010 22:33:01 10.6 C 7.03 g/m*3 10.6 C 0 km/h
354 09-10-2010 22:46:02 10.4 C 7.04 g/m*3 10.4 C 0 km/h
355 09-10-2010 22:58:02 10.2 C 6.95 g/m*3 10.2 C 0 km/h
356 09-10-2010 23:10:02 10 C 6.86 g/m*3 10 C 0 km/h
357 09-10-2010 23:22:02 9.8 C 6.96 g/m*3 9.8 C 0 km/h
358 09-10-2010 23:34:02 9.7 C 6.91 g/m*3 9.7 C 0 km/h
359 09-10-2010 23:46:02 9.4 C 6.96 g/m*3 9.4 C 0 km/h
360 09-10-2010 23:58:02 9.2 C 6.88 g/m*3 9.2 C 0 km/h
361 10-10-2010 00:10:02 9.1 C 6.92 g/m*3 9.1 C 0 km/h
362 10-10-2010 00:22:02 9.1 C 7.01 g/m*3 9.1 C 0 km/h
363 10-10-2010 00:34:02 9 C 6.96 g/m*3 9 C 0 km/h
364 10-10-2010 00:46:02 8.8 C 7.05 g/m*3 8.8 C 0 km/h
365 10-10-2010 00:58:02 8.7 C 7.01 g/m*3 8.7 C 0 km/h
366 10-10-2010 01:10:03 8.5 C 6.92 g/m*3 8.5 C 0 km/h
367 10-10-2010 01:22:03 8.5 C 7 g/m*3 8.5 C 0 km/h
368 10-10-2010 01:34:03 8.4 C 6.96 g/m*3 8.4 C 0 km/h
369 10-10-2010 01:46:03 8.3 C 6.91 g/m*3 8.3 C 0 km/h
370 10-10-2010 01:58:03 8.2 C 6.87 g/m*3 8.2 C 0 km/h
371 10-10-2010 02:10:03 8 C 6.86 g/m*3 8 C 0 km/h
372 10-10-2010 02:22:03 7.9 C 6.9 g/m*3 7.9 C 0 km/h
373 10-10-2010 02:34:03 7.9 C 6.9 g/m*3 7.9 C 0 km/h
374 10-10-2010 02:46:03 7.6 C 6.77 g/m*3 7.6 C 0 km/h
375 10-10-2010 02:58:03 7.4 C 6.68 g/m*3 7.4 C 0 km/h
Sensor: Nr:Datum:Temp:Abs-Feuchte:Windchill:Wind:
Aussen-T/F 376 10-10-2010 03:10:03 7.5 C 6.8 g/m*3 7.5 C 0 km/h
377 10-10-2010 03:22:03 7.2 C 6.67 g/m*3 7.2 C 0 km/h
378 10-10-2010 03:34:03 7.1 C 6.63 g/m*3 7.1 C 0 km/h
379 10-10-2010 03:46:03 7 C 6.59 g/m*3 7 C 0 km/h
380 10-10-2010 03:58:03 6.9 C 6.62 g/m*3 6.9 C 0 km/h
381 10-10-2010 04:10:03 7 C 6.59 g/m*3 7 C 0 km/h
382 10-10-2010 04:22:03 6.8 C 6.65 g/m*3 6.8 C 0 km/h
383 10-10-2010 04:34:03 6.7 C 6.61 g/m*3 6.7 C 0 km/h
384 10-10-2010 04:46:03 6.7 C 6.61 g/m*3 6.7 C 0 km/h
385 10-10-2010 04:58:03 6.6 C 6.57 g/m*3 6.6 C 0 km/h
386 10-10-2010 05:10:03 6.5 C 6.52 g/m*3 6.5 C 0 km/h
387 10-10-2010 05:22:03 6.4 C 6.48 g/m*3 6.4 C 0 km/h
388 10-10-2010 05:34:03 6.2 C 6.4 g/m*3 6.2 C 0 km/h
389 10-10-2010 05:46:04 6.2 C 6.4 g/m*3 6.2 C 0 km/h
390 10-10-2010 05:58:04 6.1 C 6.43 g/m*3 6.1 C 0 km/h
391 10-10-2010 06:10:04 5.9 C 6.35 g/m*3 5.9 C 0 km/h
392 10-10-2010 06:22:04 6 C 6.39 g/m*3 6 C 0 km/h
393 10-10-2010 06:34:04 6 C 6.39 g/m*3 6 C 0 km/h
394 10-10-2010 06:46:04 5.8 C 6.38 g/m*3 5.8 C 0 km/h
395 10-10-2010 06:58:04 5.6 C 6.29 g/m*3 5.6 C 0 km/h
396 10-10-2010 07:10:02 5.5 C 6.25 g/m*3 5.5 C 0 km/h
397 10-10-2010 07:22:03 5.6 C 6.29 g/m*3 5.6 C 0 km/h
398 10-10-2010 07:34:02 5.4 C 6.28 g/m*3 5.4 C 0 km/h
399 10-10-2010 07:46:02 5.4 C 6.28 g/m*3 5.4 C 0 km/h
400 10-10-2010 07:58:02 5.6 C 6.43 g/m*3 5.6 C 0 km/h
Sensor: Nr:Datum:Temp:Abs-Feuchte:Windchill:Wind:
Aussen-T/F 401 10-10-2010 08:10:01 6 C 6.53 g/m*3 6 C 0 km/h
402 10-10-2010 08:22:01 6.2 C 6.62 g/m*3 6.2 C 0 km/h
403 10-10-2010 08:34:01 6.4 C 6.71 g/m*3 6.4 C 0 km/h
404 10-10-2010 08:46:01 6.5 C 6.75 g/m*3 6.5 C 0 km/h
405 10-10-2010 08:58:01 6.7 C 6.84 g/m*3 6.7 C 0 km/h
406 10-10-2010 09:10:02 7 C 6.82 g/m*3 7 C 0 km/h
407 10-10-2010 09:22:01 6.9 C 6.85 g/m*3 6.9 C 0 km/h
408 10-10-2010 09:34:01 7.1 C 6.79 g/m*3 7.1 C 0 km/h
409 10-10-2010 09:46:01 7.5 C 6.8 g/m*3 7.5 C 0 km/h
410 10-10-2010 09:58:01 7.8 C 6.69 g/m*3 7.8 C 0 km/h
411 10-10-2010 10:10:01 8.1 C 6.49 g/m*3 8.1 C 0 km/h
412 10-10-2010 10:22:02 8.4 C 6.45 g/m*3 8.4 C 0 km/h
413 10-10-2010 10:34:01 8.8 C 6.7 g/m*3 8.8 C 0 km/h
414 10-10-2010 10:46:03 9.5 C 6.74 g/m*3 9.5 C 0 km/h
415 10-10-2010 10:58:03 9.8 C 6.59 g/m*3 9.8 C 0 km/h
416 10-10-2010 11:10:02 10.2 C 6.47 g/m*3 10.2 C 0 km/h
417 10-10-2010 11:22:02 10.3 C 6.7 g/m*3 10.3 C 0 km/h
418 10-10-2010 11:34:02 10.8 C 6.72 g/m*3 10.8 C 0 km/h
419 10-10-2010 11:46:02 11.5 C 6.51 g/m*3 11.5 C 0 km/h
420 10-10-2010 11:58:03 11.8 C 6.42 g/m*3 11.8 C 0 km/h
421 10-10-2010 12:10:01 12 C 6.61 g/m*3 12 C 0 km/h
422 10-10-2010 12:22:02 12.3 C 6.73 g/m*3 12.3 C 0 km/h
423 10-10-2010 12:34:02 12.7 C 6.68 g/m*3 12.7 C 0 km/h
424 10-10-2010 12:46:02 13.2 C 6.2 g/m*3 13.2 C 0 km/h
425 10-10-2010 12:58:02 13.8 C 6.08 g/m*3 13.8 C 0 km/h
Sensor: Nr:Datum:Temp:Abs-Feuchte:Windchill:Wind:
Aussen-T/F 426 10-10-2010 13:10:03 14.4 C 5.69 g/m*3 14.4 C 0 km/h
427 10-10-2010 13:22:02 15.2 C 5.58 g/m*3 15.2 C 0 km/h
428 10-10-2010 13:34:02 16 C 5.86 g/m*3 16 C 0 km/h
429 10-10-2010 13:46:01 16.5 C 5.76 g/m*3 16.5 C 0 km/h
430 10-10-2010 13:58:01 17.2 C 5.42 g/m*3 17.2 C 0 km/h
431 10-10-2010 14:10:02 17.8 C 5.01 g/m*3 17.8 C 0 km/h
432 10-10-2010 14:22:01 18.3 C 5.16 g/m*3 18.3 C 0 km/h
433 10-10-2010 14:34:01 18.7 C 5.76 g/m*3 18.7 C 0 km/h
434 10-10-2010 14:46:01 19 C 5.7 g/m*3 19 C 0 km/h
435 10-10-2010 14:58:01 19.3 C 5.64 g/m*3 19.3 C 0 km/h
436 10-10-2010 15:10:01 19.6 C 5.91 g/m*3 19.6 C 0 km/h
437 10-10-2010 15:22:02 20 C 6.05 g/m*3 20 C 0 km/h
438 10-10-2010 15:34:01 20.4 C 6.01 g/m*3 20.4 C 0 km/h
439 10-10-2010 15:46:02 20.9 C 6.37 g/m*3 20.9 C 0 km/h
440 10-10-2010 15:58:02 21.1 C 5.16 g/m*3 21.1 C 0 km/h
441 10-10-2010 16:10:01 21.1 C 5.71 g/m*3 21.1 C 0 km/h
442 10-10-2010 16:22:02 21.4 C 5.81 g/m*3 21.4 C 0 km/h
443 10-10-2010 16:34:01 21.3 C 5.78 g/m*3 21.3 C 0 km/h
444 10-10-2010 16:46:02 21.3 C 5.59 g/m*3 21.3 C 0 km/h
445 10-10-2010 16:58:02 21.3 C 5.59 g/m*3 21.3 C 0 km/h
446 10-10-2010 17:10:02 21.2 C 5.56 g/m*3 21.2 C 0 km/h
447 10-10-2010 17:22:02 21 C 5.86 g/m*3 21 C 0 km/h
448 10-10-2010 17:34:02 20.8 C 5.79 g/m*3 20.8 C 0 km/h
449 10-10-2010 17:46:01 20.4 C 5.48 g/m*3 20.4 C 0 km/h
450 10-10-2010 17:58:01 19.8 C 5.3 g/m*3 19.8 C 0 km/h
Sensor: Nr:Datum:Temp:Abs-Feuchte:Windchill:Wind:
Aussen-T/F 451 10-10-2010 18:10:02 19.1 C 5.41 g/m*3 19.1 C 0 km/h
452 10-10-2010 18:22:01 18.3 C 5.32 g/m*3 18.3 C 0 km/h
453 10-10-2010 18:34:02 17.1 C 5.24 g/m*3 17.1 C 0 km/h
454 10-10-2010 18:46:01 16.2 C 5.65 g/m*3 16.2 C 0 km/h
455 10-10-2010 18:58:01 15.3 C 5.48 g/m*3 15.3 C 0 km/h
456 10-10-2010 19:10:02 14.8 C 5.57 g/m*3 14.8 C 0 km/h
457 10-10-2010 19:22:01 14.5 C 5.35 g/m*3 14.5 C 0 km/h
458 10-10-2010 19:34:02 14.2 C 5.62 g/m*3 14.2 C 0 km/h
459 10-10-2010 19:46:01 13.7 C 5.68 g/m*3 13.7 C 0 km/h
460 10-10-2010 19:58:01 13.7 C 5.21 g/m*3 13.7 C 0 km/h
461 10-10-2010 20:10:02 13.4 C 5.23 g/m*3 13.4 C 0 km/h
462 10-10-2010 20:22:02 13 C 5.22 g/m*3 13 C 0 km/h
463 10-10-2010 20:34:01 13 C 4.99 g/m*3 13 C 0 km/h
464 10-10-2010 20:46:02 12.8 C 4.7 g/m*3 12.8 C 0 km/h
465 10-10-2010 20:58:02 12.9 C 4.4 g/m*3 12.9 C 0 km/h
466 10-10-2010 21:10:01 12.7 C 4.23 g/m*3 12.7 C 0 km/h
467 10-10-2010 21:22:02 12.6 C 4.09 g/m*3 12.6 C 0 km/h
468 10-10-2010 21:34:01 12.5 C 3.85 g/m*3 12.5 C 0 km/h
469 10-10-2010 21:46:02 12.4 C 3.93 g/m*3 12.4 C 0 km/h
470 10-10-2010 21:58:03 12 C 3.94 g/m*3 12 C 0 km/h
471 10-10-2010 22:11:02 11.8 C 3.89 g/m*3 11.8 C 0 km/h
472 10-10-2010 22:23:03 11.6 C 4.16 g/m*3 11.6 C 0 km/h
473 10-10-2010 22:35:03 11.4 C 4.11 g/m*3 11.4 C 0 km/h
474 10-10-2010 22:47:03 11.3 C 4.18 g/m*3 11.3 C 0 km/h
475 10-10-2010 22:59:03 11.2 C 4.26 g/m*3 11.2 C 0 km/h
Sensor: Nr:Datum:Temp:Abs-Feuchte:Windchill:Wind:
Aussen-T/F 476 10-10-2010 23:11:03 11.1 C 4.33 g/m*3 11.1 C 0 km/h
477 10-10-2010 23:23:03 10.9 C 4.48 g/m*3 10.9 C 0 km/h
478 10-10-2010 23:35:03 10.7 C 4.52 g/m*3 10.7 C 0 km/h
479 10-10-2010 23:47:03 10.6 C 4.59 g/m*3 10.6 C 0 km/h
480 10-10-2010 23:59:03 10.3 C 4.69 g/m*3 10.3 C 0 km/h
481 11-10-2010 00:11:03 10.2 C 4.85 g/m*3 10.2 C 0 km/h
482 11-10-2010 00:23:03 10 C 4.89 g/m*3 10 C 0 km/h
483 11-10-2010 00:35:03 9.9 C 4.95 g/m*3 9.9 C 0 km/h
484 11-10-2010 00:47:03 10 C 4.79 g/m*3 10 C 0 km/h
485 11-10-2010 00:59:03 9.8 C 4.92 g/m*3 9.8 C 0 km/h
486 11-10-2010 01:11:03 9.6 C 4.95 g/m*3 9.6 C 0 km/h
487 11-10-2010 01:23:03 9.5 C 4.92 g/m*3 9.5 C 0 km/h
488 11-10-2010 01:35:03 9.4 C 4.88 g/m*3 9.4 C 0 km/h
489 11-10-2010 01:47:03 9.3 C 4.94 g/m*3 9.3 C 0 km/h
490 11-10-2010 01:59:03 9.4 C 4.88 g/m*3 9.4 C 0 km/h
491 11-10-2010 02:11:03 9.4 C 4.79 g/m*3 9.4 C 0 km/h
492 11-10-2010 02:23:03 9.4 C 4.88 g/m*3 9.4 C 0 km/h
493 11-10-2010 02:35:03 9 C 4.85 g/m*3 9 C 0 km/h
494 11-10-2010 02:47:04 8.9 C 4.91 g/m*3 8.9 C 0 km/h
495 11-10-2010 02:59:04 8.7 C 4.93 g/m*3 8.7 C 0 km/h
496 11-10-2010 03:11:04 8.5 C 4.95 g/m*3 8.5 C 0 km/h
497 11-10-2010 03:23:04 8.3 C 4.97 g/m*3 8.3 C 0 km/h
498 11-10-2010 03:35:04 8.2 C 5.02 g/m*3 8.2 C 0 km/h
499 11-10-2010 03:47:04 8.1 C 4.99 g/m*3 8.1 C 0 km/h
500 11-10-2010 03:59:04 8.1 C 4.99 g/m*3 8.1 C 0 km/h
Sensor: Nr:Datum:Temp:Abs-Feuchte:Windchill:Wind:
Aussen-T/F 501 11-10-2010 04:11:04 7.7 C 5.03 g/m*3 7.7 C 0 km/h
502 11-10-2010 04:23:04 7.5 C 5.12 g/m*3 7.5 C 0 km/h
503 11-10-2010 04:35:04 7.5 C 5.12 g/m*3 7.5 C 0 km/h
504 11-10-2010 04:47:04 7.6 C 5.16 g/m*3 7.6 C 0 km/h
505 11-10-2010 04:59:04 7.6 C 5.08 g/m*3 7.6 C 0 km/h
506 11-10-2010 05:11:04 7.1 C 5.07 g/m*3 7.1 C 0 km/h
507 11-10-2010 05:23:04 7 C 5.27 g/m*3 7 C 0 km/h
508 11-10-2010 05:35:04 6.6 C 5.28 g/m*3 6.6 C 0 km/h
509 11-10-2010 05:47:04 6.3 C 5.26 g/m*3 6.3 C 0 km/h
510 11-10-2010 05:59:04 6.2 C 5.29 g/m*3 6.2 C 0 km/h
511 11-10-2010 06:11:04 6 C 5.23 g/m*3 6 C 0 km/h
512 11-10-2010 06:23:04 5.8 C 5.23 g/m*3 5.8 C 0 km/h
513 11-10-2010 06:35:04 5.7 C 5.34 g/m*3 5.7 C 0 km/h
514 11-10-2010 06:47:04 5.6 C 5.37 g/m*3 5.6 C 0 km/h
515 11-10-2010 06:59:05 5.5 C 5.41 g/m*3 5.5 C 0 km/h
516 11-10-2010 07:11:02 5.4 C 5.37 g/m*3 5.4 C 0 km/h
517 11-10-2010 07:23:02 5.3 C 5.41 g/m*3 5.3 C 0 km/h
518 11-10-2010 07:35:03 5.3 C 5.41 g/m*3 5.3 C 0 km/h
519 11-10-2010 07:47:02 5.1 C 5.34 g/m*3 5.1 C 0 km/h
520 11-10-2010 07:59:02 5 C 5.3 g/m*3 5 C 0 km/h
521 11-10-2010 08:11:02 4.9 C 5.33 g/m*3 4.9 C 0 km/h
522 11-10-2010 08:23:02 4.9 C 5.4 g/m*3 4.9 C 0 km/h
523 11-10-2010 08:35:02 5 C 5.37 g/m*3 5 C 0 km/h
524 11-10-2010 08:47:02 5 C 5.44 g/m*3 5 C 0 km/h
525 11-10-2010 08:59:02 5 C 5.44 g/m*3 5 C 0 km/h
Sensor: Nr:Datum:Temp:Abs-Feuchte:Windchill:Wind:
Aussen-T/F 526 11-10-2010 09:11:02 5.3 C 5.61 g/m*3 5.3 C 0 km/h
527 11-10-2010 09:23:02 5.4 C 5.65 g/m*3 5.4 C 0 km/h
528 11-10-2010 09:35:02 5.6 C 5.73 g/m*3 5.6 C 0 km/h
529 11-10-2010 09:47:01 5.8 C 5.73 g/m*3 5.8 C 0 km/h
530 11-10-2010 09:59:01 5.9 C 5.77 g/m*3 5.9 C 0 km/h
531 11-10-2010 10:11:01 6.1 C 5.77 g/m*3 6.1 C 0 km/h
532 11-10-2010 10:23:01 6.5 C 6 g/m*3 6.5 C 0 km/h
533 11-10-2010 10:35:01 7.1 C 6.16 g/m*3 7.1 C 0 km/h
534 11-10-2010 10:47:02 7.7 C 6.32 g/m*3 7.7 C 0 km/h
535 11-10-2010 10:59:02 8.2 C 6.28 g/m*3 8.2 C 0 km/h
536 11-10-2010 11:11:02 8.7 C 6.31 g/m*3 8.7 C 0 km/h
537 11-10-2010 11:23:03 9 C 6.26 g/m*3 9 C 0 km/h
538 11-10-2010 11:35:02 9.4 C 6.33 g/m*3 9.4 C 0 km/h
539 11-10-2010 11:47:01 9.9 C 6.44 g/m*3 9.9 C 0 km/h
540 11-10-2010 11:59:01 10.3 C 6.42 g/m*3 10.3 C 0 km/h
541 11-10-2010 12:11:02 10.7 C 6.38 g/m*3 10.7 C 0 km/h
542 11-10-2010 12:23:01 11.3 C 6.43 g/m*3 11.3 C 0 km/h
543 11-10-2010 12:35:01 11.6 C 6.44 g/m*3 11.6 C 0 km/h
544 11-10-2010 12:47:01 12 C 6.39 g/m*3 12 C 0 km/h
545 11-10-2010 12:59:01 12.5 C 6.6 g/m*3 12.5 C 0 km/h
546 11-10-2010 13:11:01 13.8 C 6.2 g/m*3 13.8 C 0 km/h
547 11-10-2010 13:23:02 14.5 C 6.09 g/m*3 14.5 C 0 km/h
548 11-10-2010 13:35:01 14.9 C 5.99 g/m*3 14.9 C 0 km/h
549 11-10-2010 13:47:02 15.4 C 5.65 g/m*3 15.4 C 0 km/h
550 11-10-2010 13:59:02 16 C 5.45 g/m*3 16 C 0 km/h
Sensor: Nr:Datum:Temp:Abs-Feuchte:Windchill:Wind:
Aussen-T/F 551 11-10-2010 14:11:02 16.7 C 4.97 g/m*3 16.7 C 0 km/h
552 11-10-2010 14:23:02 17.1 C 5.82 g/m*3 17.1 C 0 km/h
553 11-10-2010 14:35:01 17.4 C 5.48 g/m*3 17.4 C 0 km/h
554 11-10-2010 14:47:01 17.9 C 5.5 g/m*3 17.9 C 0 km/h
555 11-10-2010 14:59:02 18.3 C 5.47 g/m*3 18.3 C 0 km/h
556 11-10-2010 15:11:01 18.8 C 5.31 g/m*3 18.8 C 0 km/h
557 11-10-2010 15:23:01 19.4 C 5.51 g/m*3 19.4 C 0 km/h
558 11-10-2010 15:35:01 19.8 C 5.12 g/m*3 19.8 C 0 km/h
559 11-10-2010 15:47:01 20.3 C 4.57 g/m*3 20.3 C 0 km/h
560 11-10-2010 15:59:01 20.6 C 4.65 g/m*3 20.6 C 0 km/h
561 11-10-2010 16:11:02 20.8 C 4.71 g/m*3 20.8 C 0 km/h
562 11-10-2010 16:23:01 21.1 C 4.97 g/m*3 21.1 C 0 km/h
563 11-10-2010 16:35:01 21.2 C 4.63 g/m*3 21.2 C 0 km/h
564 11-10-2010 16:47:01 21 C 4.58 g/m*3 21 C 0 km/h
565 11-10-2010 16:59:01 20.7 C 4.14 g/m*3 20.7 C 0 km/h
566 11-10-2010 17:11:02 20.5 C 3.74 g/m*3 20.5 C 0 km/h
567 11-10-2010 17:23:01 20 C 3.63 g/m*3 20 C 0 km/h
568 11-10-2010 17:35:01 19.5 C 3.36 g/m*3 19.5 C 0 km/h
569 11-10-2010 17:47:01 19.1 C 3.44 g/m*3 19.1 C 0 km/h
570 11-10-2010 17:59:01 18.7 C 3.84 g/m*3 18.7 C 0 km/h
571 11-10-2010 18:11:01 18 C 4.45 g/m*3 18 C 0 km/h
572 11-10-2010 18:23:02 16.9 C 4.31 g/m*3 16.9 C 0 km/h
573 11-10-2010 18:35:01 15.7 C 3.88 g/m*3 15.7 C 0 km/h
574 11-10-2010 18:47:03 15.1 C 3.61 g/m*3 15.1 C 0 km/h
575 11-10-2010 18:59:03 14.9 C 3.7 g/m*3 14.9 C 0 km/h
Sensor: Nr:Datum:Temp:Abs-Feuchte:Windchill:Wind:
Aussen-T/F 576 11-10-2010 19:11:02 14.4 C 3.71 g/m*3 14.4 C 0 km/h
577 11-10-2010 19:23:02 13.7 C 4.14 g/m*3 13.7 C 0 km/h
578 11-10-2010 19:35:02 13.2 C 4.48 g/m*3 13.2 C 0 km/h
579 11-10-2010 19:47:02 12.5 C 4.51 g/m*3 12.5 C 0 km/h
580 11-10-2010 19:59:03 12.1 C 4.72 g/m*3 12.1 C 0 km/h
581 11-10-2010 20:11:02 11.9 C 4.77 g/m*3 11.9 C 0 km/h
582 11-10-2010 20:23:02 11.8 C 4.84 g/m*3 11.8 C 0 km/h
583 11-10-2010 20:35:02 11.3 C 4.79 g/m*3 11.3 C 0 km/h
584 11-10-2010 20:47:01 11 C 4.7 g/m*3 11 C 0 km/h
585 11-10-2010 20:59:01 10.6 C 4.98 g/m*3 10.6 C 0 km/h
586 11-10-2010 21:11:02 10.3 C 5.08 g/m*3 10.3 C 0 km/h
587 11-10-2010 21:23:01 10.1 C 4.82 g/m*3 10.1 C 0 km/h
588 11-10-2010 21:35:02 9.9 C 4.95 g/m*3 9.9 C 0 km/h
589 11-10-2010 21:48:03 9.8 C 5.01 g/m*3 9.8 C 0 km/h
590 11-10-2010 22:00:03 9.6 C 4.95 g/m*3 9.6 C 0 km/h
591 11-10-2010 22:12:03 9.4 C 4.88 g/m*3 9.4 C 0 km/h
592 11-10-2010 22:24:03 9.3 C 4.76 g/m*3 9.3 C 0 km/h
593 11-10-2010 22:36:03 8.9 C 4.82 g/m*3 8.9 C 0 km/h
594 11-10-2010 22:48:03 8.8 C 4.79 g/m*3 8.8 C 0 km/h
595 11-10-2010 23:00:03 8.7 C 5.02 g/m*3 8.7 C 0 km/h
596 11-10-2010 23:12:04 8.4 C 4.84 g/m*3 8.4 C 0 km/h
597 11-10-2010 23:24:04 8.2 C 4.86 g/m*3 8.2 C 0 km/h
598 11-10-2010 23:36:04 8.1 C 4.83 g/m*3 8.1 C 0 km/h
599 11-10-2010 23:48:04 7.8 C 4.82 g/m*3 7.8 C 0 km/h
600 12-10-2010 00:00:04 7.4 C 4.93 g/m*3 7.4 C 0 km/h
Sensor: Nr:Datum:Temp:Abs-Feuchte:Windchill:Wind:
Aussen-T/F 601 12-10-2010 00:12:04 7.3 C 4.98 g/m*3 7.3 C 0 km/h
602 12-10-2010 00:24:04 7.2 C 4.95 g/m*3 7.2 C 0 km/h
603 12-10-2010 00:36:04 7.1 C 5.07 g/m*3 7.1 C 0 km/h
604 12-10-2010 00:48:04 6.8 C 5.12 g/m*3 6.8 C 0 km/h
605 12-10-2010 01:00:04 6.7 C 5.09 g/m*3 6.7 C 0 km/h
606 12-10-2010 01:12:04 6.5 C 5.1 g/m*3 6.5 C 0 km/h
607 12-10-2010 01:24:04 6.4 C 5.14 g/m*3 6.4 C 0 km/h
608 12-10-2010 01:36:04 6.3 C 5.18 g/m*3 6.3 C 0 km/h
609 12-10-2010 01:48:04 6.1 C 5.11 g/m*3 6.1 C 0 km/h
610 12-10-2010 02:00:04 6 C 5.15 g/m*3 6 C 0 km/h
611 12-10-2010 02:12:04 5.8 C 5.23 g/m*3 5.8 C 0 km/h
612 12-10-2010 02:24:04 5.8 C 5.3 g/m*3 5.8 C 0 km/h
613 12-10-2010 02:36:04 5.6 C 5.23 g/m*3 5.6 C 0 km/h
614 12-10-2010 02:48:04 5.5 C 5.27 g/m*3 5.5 C 0 km/h
615 12-10-2010 03:00:04 5.2 C 5.16 g/m*3 5.2 C 0 km/h
616 12-10-2010 03:12:04 5.3 C 5.41 g/m*3 5.3 C 0 km/h
617 12-10-2010 03:24:05 5.1 C 5.4 g/m*3 5.1 C 0 km/h
618 12-10-2010 03:36:05 4.9 C 5.33 g/m*3 4.9 C 0 km/h
619 12-10-2010 03:48:05 4.7 C 5.26 g/m*3 4.7 C 0 km/h
620 12-10-2010 04:00:05 4.6 C 5.29 g/m*3 4.6 C 0 km/h
621 12-10-2010 04:12:05 4.4 C 5.22 g/m*3 4.4 C 0 km/h
622 12-10-2010 04:24:05 4.5 C 5.39 g/m*3 4.5 C 0 km/h
623 12-10-2010 04:36:05 4.4 C 5.42 g/m*3 4.4 C 0 km/h
624 12-10-2010 04:48:05 4.2 C 5.35 g/m*3 4.2 C 0 km/h
625 12-10-2010 05:00:05 4.1 C 5.38 g/m*3 4.1 C 0 km/h
Sensor: Nr:Datum:Temp:Abs-Feuchte:Windchill:Wind:
Aussen-T/F 626 12-10-2010 05:12:05 4 C 5.34 g/m*3 4 C 0 km/h
627 12-10-2010 05:24:05 3.7 C 5.3 g/m*3 3.7 C 0 km/h
628 12-10-2010 05:36:05 3.6 C 5.26 g/m*3 3.6 C 0 km/h
629 12-10-2010 05:48:05 3.6 C 5.26 g/m*3 3.6 C 0 km/h
630 12-10-2010 06:00:05 3.6 C 5.26 g/m*3 3.6 C 0 km/h
631 12-10-2010 06:12:05 3.5 C 5.29 g/m*3 3.5 C 0 km/h
632 12-10-2010 06:24:05 3.4 C 5.25 g/m*3 3.4 C 0 km/h
633 12-10-2010 06:36:05 3.4 C 5.25 g/m*3 3.4 C 0 km/h
634 12-10-2010 06:48:02 3.4 C 5.25 g/m*3 3.4 C 0 km/h
635 12-10-2010 07:00:02 3.2 C 5.18 g/m*3 3.2 C 0 km/h
636 12-10-2010 07:12:03 3.1 C 5.15 g/m*3 3.1 C 0 km/h
637 12-10-2010 07:24:02 3 C 5.17 g/m*3 3 C 0 km/h
638 12-10-2010 07:36:02 2.8 C 5.16 g/m*3 2.8 C 0 km/h
639 12-10-2010 07:48:01 2.6 C 5.09 g/m*3 2.6 C 0 km/h
640 12-10-2010 08:00:01 2.7 C 5.13 g/m*3 2.7 C 0 km/h
641 12-10-2010 08:12:02 3.2 C 5.36 g/m*3 3.2 C 0 km/h
642 12-10-2010 08:24:02 3.6 C 5.57 g/m*3 3.6 C 0 km/h
643 12-10-2010 08:36:02 4 C 5.72 g/m*3 4 C 0 km/h
644 12-10-2010 08:48:02 4.3 C 5.84 g/m*3 4.3 C 0 km/h
645 12-10-2010 09:00:02 4.5 C 5.85 g/m*3 4.5 C 0 km/h
646 12-10-2010 09:12:02 4.7 C 5.93 g/m*3 4.7 C 0 km/h
647 12-10-2010 09:24:02 4.8 C 5.9 g/m*3 4.8 C 0 km/h
648 12-10-2010 09:36:02 5.2 C 5.99 g/m*3 5.2 C 0 km/h
649 12-10-2010 09:48:02 5.3 C 5.96 g/m*3 5.3 C 0 km/h
650 12-10-2010 10:00:02 5.3 C 5.89 g/m*3 5.3 C 0 km/h
Sensor: Nr:Datum:Temp:Abs-Feuchte:Windchill:Wind:
Aussen-T/F 651 12-10-2010 10:12:02 5.6 C 6.01 g/m*3 5.6 C 0 km/h
652 12-10-2010 10:24:02 5.7 C 6.05 g/m*3 5.7 C 0 km/h
653 12-10-2010 10:36:02 6 C 6.1 g/m*3 6 C 0 km/h
654 12-10-2010 10:48:02 6.5 C 6.3 g/m*3 6.5 C 0 km/h
655 12-10-2010 11:00:02 6.5 C 6.3 g/m*3 6.5 C 0 km/h
656 12-10-2010 11:12:02 6.6 C 6.34 g/m*3 6.6 C 0 km/h
657 12-10-2010 11:24:02 7 C 6.43 g/m*3 7 C 0 km/h
658 12-10-2010 11:36:02 7.7 C 6.41 g/m*3 7.7 C 0 km/h
659 12-10-2010 11:48:02 8 C 6.28 g/m*3 8 C 0 km/h
660 12-10-2010 12:00:02 8.4 C 6.28 g/m*3 8.4 C 0 km/h
661 12-10-2010 12:12:02 9 C 6.17 g/m*3 9 C 0 km/h
662 12-10-2010 12:24:02 9.6 C 6.14 g/m*3 9.6 C 0 km/h
663 12-10-2010 12:36:02 10.2 C 6.09 g/m*3 10.2 C 0 km/h
664 12-10-2010 12:48:02 10.6 C 6.15 g/m*3 10.6 C 0 km/h
665 12-10-2010 13:00:02 11.5 C 5.78 g/m*3 11.5 C 0 km/h
666 12-10-2010 13:12:01 12.2 C 5.5 g/m*3 12.2 C 0 km/h
667 12-10-2010 13:24:02 12.7 C 5.79 g/m*3 12.7 C 0 km/h
668 12-10-2010 13:36:02 13 C 5.78 g/m*3 13 C 0 km/h
669 12-10-2010 13:48:02 13.5 C 5.73 g/m*3 13.5 C 0 km/h
670 12-10-2010 14:00:02 14.1 C 5.83 g/m*3 14.1 C 0 km/h
671 12-10-2010 14:12:03 15 C 5.39 g/m*3 15 C 0 km/h
672 12-10-2010 14:24:02 15.4 C 5.65 g/m*3 15.4 C 0 km/h
673 12-10-2010 14:36:02 15.6 C 5.72 g/m*3 15.6 C 0 km/h
674 12-10-2010 14:48:01 16.2 C 5.65 g/m*3 16.2 C 0 km/h
675 12-10-2010 15:00:01 16.4 C 5.58 g/m*3 16.4 C 0 km/h
Sensor: Nr:Datum:Temp:Abs-Feuchte:Windchill:Wind:
Aussen-T/F 676 12-10-2010 15:12:02 17 C 5.5 g/m*3 17 C 0 km/h
677 12-10-2010 15:24:01 16.8 C 5.29 g/m*3 16.8 C 0 km/h
678 12-10-2010 15:36:01 17.2 C 5.42 g/m*3 17.2 C 0 km/h
679 12-10-2010 15:48:01 17.3 C 5.3 g/m*3 17.3 C 0 km/h
680 12-10-2010 16:00:01 17.5 C 5.52 g/m*3 17.5 C 0 km/h
681 12-10-2010 16:12:02 17.8 C 5.31 g/m*3 17.8 C 0 km/h
682 12-10-2010 16:24:02 17.4 C 5.48 g/m*3 17.4 C 0 km/h
683 12-10-2010 16:36:01 17.7 C 5.43 g/m*3 17.7 C 0 km/h
684 12-10-2010 16:48:02 17.9 C 5.34 g/m*3 17.9 C 0 km/h
685 12-10-2010 17:00:02 17.9 C 4.89 g/m*3 17.9 C 0 km/h
686 12-10-2010 17:12:01 17.8 C 4.86 g/m*3 17.8 C 0 km/h
687 12-10-2010 17:24:02 17.4 C 4.45 g/m*3 17.4 C 0 km/h
688 12-10-2010 17:36:01 16.6 C 4.24 g/m*3 16.6 C 0 km/h
689 12-10-2010 17:48:02 16.4 C 4.47 g/m*3 16.4 C 0 km/h
690 12-10-2010 18:00:02 16 C 4.9 g/m*3 16 C 0 km/h
691 12-10-2010 18:12:02 15.4 C 5.39 g/m*3 15.4 C 0 km/h
692 12-10-2010 18:24:02 14.4 C 5.69 g/m*3 14.4 C 0 km/h
693 12-10-2010 18:36:03 13.7 C 5.92 g/m*3 13.7 C 0 km/h
694 12-10-2010 18:48:02 13 C 6.12 g/m*3 13 C 0 km/h
695 12-10-2010 19:00:02 12.3 C 6.3 g/m*3 12.3 C 0 km/h
696 12-10-2010 19:12:02 11.8 C 6.42 g/m*3 11.8 C 0 km/h
697 12-10-2010 19:24:02 11.3 C 6.43 g/m*3 11.3 C 0 km/h
698 12-10-2010 19:36:02 10.9 C 6.56 g/m*3 10.9 C 0 km/h
699 12-10-2010 19:48:02 10.8 C 6.52 g/m*3 10.8 C 0 km/h
700 12-10-2010 20:00:02 10.4 C 6.46 g/m*3 10.4 C 0 km/h
Sensor: Nr:Datum:Temp:Abs-Feuchte:Windchill:Wind:
Aussen-T/F 701 12-10-2010 20:12:01 10.1 C 6.43 g/m*3 10.1 C 0 km/h
702 12-10-2010 20:24:02 9.9 C 6.54 g/m*3 9.9 C 0 km/h
703 12-10-2010 20:36:01 9.5 C 6.46 g/m*3 9.5 C 0 km/h
704 12-10-2010 20:48:02 9.3 C 6.47 g/m*3 9.3 C 0 km/h
705 12-10-2010 21:00:02 8.9 C 6.39 g/m*3 8.9 C 0 km/h
706 12-10-2010 21:12:02 8.6 C 6.27 g/m*3 8.6 C 0 km/h
707 12-10-2010 21:24:02 8.3 C 6.24 g/m*3 8.3 C 0 km/h
708 12-10-2010 21:36:02 8.1 C 6.16 g/m*3 8.1 C 0 km/h
709 12-10-2010 21:48:02 7.9 C 6.24 g/m*3 7.9 C 0 km/h
710 12-10-2010 22:00:02 7.7 C 6.16 g/m*3 7.7 C 0 km/h
711 12-10-2010 22:12:01 7.5 C 6.08 g/m*3 7.5 C 0 km/h
712 12-10-2010 22:25:03 7.6 C 6.2 g/m*3 7.6 C 0 km/h
713 12-10-2010 22:37:03 7.9 C 6.24 g/m*3 7.9 C 0 km/h
714 12-10-2010 22:49:03 8 C 6.04 g/m*3 8 C 0 km/h
715 12-10-2010 23:01:03 7.9 C 6 g/m*3 7.9 C 0 km/h
716 12-10-2010 23:13:03 7.7 C 5.92 g/m*3 7.7 C 0 km/h
717 12-10-2010 23:25:03 7.8 C 6.04 g/m*3 7.8 C 0 km/h
718 12-10-2010 23:37:03 7.8 C 6.04 g/m*3 7.8 C 0 km/h
719 12-10-2010 23:49:03 7.7 C 6 g/m*3 7.7 C 0 km/h
720 13-10-2010 00:01:03 7.7 C 5.92 g/m*3 7.7 C 0 km/h
721 13-10-2010 00:13:03 7.7 C 5.92 g/m*3 7.7 C 0 km/h
722 13-10-2010 00:25:03 7.9 C 5.91 g/m*3 7.9 C 0 km/h
723 13-10-2010 00:37:03 7.4 C 5.81 g/m*3 7.4 C 0 km/h
724 13-10-2010 00:49:03 7.3 C 5.77 g/m*3 7.3 C 0 km/h
725 13-10-2010 01:01:03 7.3 C 5.85 g/m*3 7.3 C 0 km/h
Sensor: Nr:Datum:Temp:Abs-Feuchte:Windchill:Wind:
Aussen-T/F 726 13-10-2010 01:13:03 7.3 C 5.85 g/m*3 7.3 C 0 km/h
727 13-10-2010 01:25:04 7 C 5.73 g/m*3 7 C 0 km/h
728 13-10-2010 01:37:04 6.8 C 5.81 g/m*3 6.8 C 0 km/h
729 13-10-2010 01:49:04 6.7 C 5.85 g/m*3 6.7 C 0 km/h
730 13-10-2010 02:01:04 6.9 C 5.93 g/m*3 6.9 C 0 km/h
731 13-10-2010 02:13:04 6.9 C 5.85 g/m*3 6.9 C 0 km/h
732 13-10-2010 02:25:04 6.8 C 5.81 g/m*3 6.8 C 0 km/h
733 13-10-2010 02:37:04 6.9 C 5.85 g/m*3 6.9 C 0 km/h
734 13-10-2010 02:49:04 6.5 C 5.7 g/m*3 6.5 C 0 km/h
735 13-10-2010 03:01:04 6.4 C 5.74 g/m*3 6.4 C 0 km/h
736 13-10-2010 03:13:04 6.4 C 5.74 g/m*3 6.4 C 0 km/h
737 13-10-2010 03:25:04 6.5 C 5.7 g/m*3 6.5 C 0 km/h
738 13-10-2010 03:37:04 6.5 C 5.7 g/m*3 6.5 C 0 km/h
739 13-10-2010 03:49:04 6.4 C 5.59 g/m*3 6.4 C 0 km/h
740 13-10-2010 04:01:04 6.2 C 5.52 g/m*3 6.2 C 0 km/h
741 13-10-2010 04:13:04 6.1 C 5.55 g/m*3 6.1 C 0 km/h
742 13-10-2010 04:25:04 6.2 C 5.66 g/m*3 6.2 C 0 km/h
743 13-10-2010 04:37:04 6.2 C 5.59 g/m*3 6.2 C 0 km/h
744 13-10-2010 04:49:04 6.3 C 5.63 g/m*3 6.3 C 0 km/h
745 13-10-2010 05:01:04 6.3 C 5.63 g/m*3 6.3 C 0 km/h
746 13-10-2010 05:13:04 6.2 C 5.59 g/m*3 6.2 C 0 km/h
747 13-10-2010 05:25:04 6.1 C 5.55 g/m*3 6.1 C 0 km/h
748 13-10-2010 05:37:05 6 C 5.59 g/m*3 6 C 0 km/h
749 13-10-2010 05:49:05 5.9 C 5.62 g/m*3 5.9 C 0 km/h
750 13-10-2010 06:01:05 6 C 5.66 g/m*3 6 C 0 km/h
Sensor: Nr:Datum:Temp:Abs-Feuchte:Windchill:Wind:
Aussen-T/F 751 13-10-2010 06:13:05 6 C 5.59 g/m*3 6 C 0 km/h
752 13-10-2010 06:25:05 5.8 C 5.59 g/m*3 5.8 C 0 km/h
753 13-10-2010 06:37:05 5.8 C 5.59 g/m*3 5.8 C 0 km/h
754 13-10-2010 06:49:02 5.6 C 5.59 g/m*3 5.6 C 0 km/h
755 13-10-2010 07:01:02 5.5 C 5.55 g/m*3 5.5 C 0 km/h
756 13-10-2010 07:13:02 5.4 C 5.51 g/m*3 5.4 C 0 km/h
757 13-10-2010 07:25:02 5.2 C 5.44 g/m*3 5.2 C 0 km/h
758 13-10-2010 07:37:02 5.4 C 5.58 g/m*3 5.4 C 0 km/h
759 13-10-2010 07:49:01 5.6 C 5.59 g/m*3 5.6 C 0 km/h
760 13-10-2010 08:01:02 5.7 C 5.55 g/m*3 5.7 C 0 km/h
761 13-10-2010 08:13:02 5.6 C 5.51 g/m*3 5.6 C 0 km/h
762 13-10-2010 08:25:02 5.6 C 5.51 g/m*3 5.6 C 0 km/h
763 13-10-2010 08:37:01 5.6 C 5.44 g/m*3 5.6 C 0 km/h
764 13-10-2010 08:49:02 5.6 C 5.44 g/m*3 5.6 C 0 km/h
765 13-10-2010 09:01:02 5.7 C 5.48 g/m*3 5.7 C 0 km/h
766 13-10-2010 09:13:02 5.7 C 5.48 g/m*3 5.7 C 0 km/h
767 13-10-2010 09:25:02 5.8 C 5.44 g/m*3 5.8 C 0 km/h
768 13-10-2010 09:37:03 6 C 5.44 g/m*3 6 C 0 km/h
769 13-10-2010 09:49:02 6.1 C 5.41 g/m*3 6.1 C 0 km/h
770 13-10-2010 10:01:02 6.4 C 5.44 g/m*3 6.4 C 0 km/h
771 13-10-2010 10:13:02 6.6 C 5.36 g/m*3 6.6 C 0 km/h
772 13-10-2010 10:25:01 6.7 C 5.32 g/m*3 6.7 C 0 km/h
773 13-10-2010 10:37:02 6.8 C 5.2 g/m*3 6.8 C 0 km/h
774 13-10-2010 10:49:02 6.8 C 5.2 g/m*3 6.8 C 0 km/h
775 13-10-2010 11:01:02 7 C 5.11 g/m*3 7 C 0 km/h
Sensor: Nr:Datum:Temp:Abs-Feuchte:Windchill:Wind:
Aussen-T/F 776 13-10-2010 11:13:02 7 C 5.04 g/m*3 7 C 0 km/h
777 13-10-2010 11:25:02 6.8 C 5.05 g/m*3 6.8 C 0 km/h
778 13-10-2010 11:37:02 7.1 C 5.15 g/m*3 7.1 C 0 km/h
779 13-10-2010 11:49:02 7.3 C 5.06 g/m*3 7.3 C 0 km/h
780 13-10-2010 12:01:02 7.7 C 5.11 g/m*3 7.7 C 0 km/h
781 13-10-2010 12:13:02 7.9 C 5.01 g/m*3 7.9 C 0 km/h
782 13-10-2010 12:25:02 8 C 5.04 g/m*3 8 C 0 km/h
783 13-10-2010 12:37:02 8.4 C 5.01 g/m*3 8.4 C 0 km/h
784 13-10-2010 12:49:02 8.7 C 5.1 g/m*3 8.7 C 0 km/h
785 13-10-2010 13:01:02 9 C 4.94 g/m*3 9 C 0 km/h
786 13-10-2010 13:13:02 8.8 C 4.87 g/m*3 8.8 C 0 km/h
787 13-10-2010 13:25:02 9 C 4.94 g/m*3 9 C 0 km/h
788 13-10-2010 13:37:02 8.5 C 4.87 g/m*3 8.5 C 0 km/h
789 13-10-2010 13:49:02 8.7 C 4.84 g/m*3 8.7 C 0 km/h
790 13-10-2010 14:01:02 9.6 C 5.13 g/m*3 9.6 C 0 km/h
791 13-10-2010 14:13:02 9.4 C 4.79 g/m*3 9.4 C 0 km/h
792 13-10-2010 14:25:02 9.6 C 4.86 g/m*3 9.6 C 0 km/h
793 13-10-2010 14:37:01 9.7 C 4.98 g/m*3 9.7 C 0 km/h
794 13-10-2010 14:49:02 10.7 C 5.01 g/m*3 10.7 C 0 km/h
795 13-10-2010 15:01:01 11.3 C 5 g/m*3 11.3 C 0 km/h
796 13-10-2010 15:13:01 11.2 C 4.87 g/m*3 11.2 C 0 km/h
797 13-10-2010 15:25:01 11.9 C 5.08 g/m*3 11.9 C 0 km/h
798 13-10-2010 15:37:02 12 C 4.8 g/m*3 12 C 0 km/h
799 13-10-2010 15:49:02 12.5 C 4.95 g/m*3 12.5 C 0 km/h
800 13-10-2010 16:01:02 12.1 C 4.93 g/m*3 12.1 C 0 km/h
Sensor: Nr:Datum:Temp:Abs-Feuchte:Windchill:Wind:
Aussen-T/F 801 13-10-2010 16:13:02 11.9 C 4.98 g/m*3 11.9 C 0 km/h
802 13-10-2010 16:25:01 12.1 C 4.93 g/m*3 12.1 C 0 km/h
803 13-10-2010 16:37:02 11.8 C 5.05 g/m*3 11.8 C 0 km/h
804 13-10-2010 16:49:02 12.4 C 5.14 g/m*3 12.4 C 0 km/h
805 13-10-2010 17:01:02 12.3 C 4.99 g/m*3 12.3 C 0 km/h
806 13-10-2010 17:13:02 12.2 C 5.07 g/m*3 12.2 C 0 km/h
807 13-10-2010 17:25:01 12.5 C 5.39 g/m*3 12.5 C 0 km/h
808 13-10-2010 17:37:02 12.5 C 5.28 g/m*3 12.5 C 0 km/h
809 13-10-2010 17:49:01 12.2 C 5.4 g/m*3 12.2 C 0 km/h
810 13-10-2010 18:01:02 11.6 C 5.4 g/m*3 11.6 C 0 km/h
811 13-10-2010 18:13:02 10.9 C 5.47 g/m*3 10.9 C 0 km/h
812 13-10-2010 18:25:02 9.8 C 5.47 g/m*3 9.8 C 0 km/h
813 13-10-2010 18:37:02 9 C 5.47 g/m*3 9 C 0 km/h
814 13-10-2010 18:49:02 8.4 C 5.6 g/m*3 8.4 C 0 km/h
815 13-10-2010 19:01:01 7.9 C 5.67 g/m*3 7.9 C 0 km/h
816 13-10-2010 19:13:01 7.6 C 5.72 g/m*3 7.6 C 0 km/h
817 13-10-2010 19:25:02 7.4 C 5.73 g/m*3 7.4 C 0 km/h
818 13-10-2010 19:37:01 7.3 C 5.85 g/m*3 7.3 C 0 km/h
819 13-10-2010 19:49:02 7.2 C 5.81 g/m*3 7.2 C 0 km/h
820 13-10-2010 20:01:02 7.3 C 5.85 g/m*3 7.3 C 0 km/h
821 13-10-2010 20:13:02 7 C 5.73 g/m*3 7 C 0 km/h
822 13-10-2010 20:25:02 7 C 5.81 g/m*3 7 C 0 km/h
823 13-10-2010 20:37:03 6.9 C 5.85 g/m*3 6.9 C 0 km/h
824 13-10-2010 20:49:02 6.6 C 5.81 g/m*3 6.6 C 0 km/h
825 13-10-2010 21:01:02 6.3 C 5.77 g/m*3 6.3 C 0 km/h
Sensor: Nr:Datum:Temp:Abs-Feuchte:Windchill:Wind:
Aussen-T/F 826 13-10-2010 21:13:02 6 C 5.73 g/m*3 6 C 0 km/h
827 13-10-2010 21:25:01 5.8 C 5.73 g/m*3 5.8 C 0 km/h
828 13-10-2010 21:37:02 5.6 C 5.73 g/m*3 5.6 C 0 km/h
829 13-10-2010 21:49:02 5.4 C 5.65 g/m*3 5.4 C 0 km/h
830 13-10-2010 22:02:03 5.4 C 5.72 g/m*3 5.4 C 0 km/h
831 13-10-2010 22:14:03 5.3 C 5.75 g/m*3 5.3 C 0 km/h
832 13-10-2010 22:26:03 5.2 C 5.71 g/m*3 5.2 C 0 km/h
833 13-10-2010 22:38:03 5.1 C 5.75 g/m*3 5.1 C 0 km/h
834 13-10-2010 22:50:03 4.8 C 5.7 g/m*3 4.8 C 0 km/h
835 13-10-2010 23:02:03 4.7 C 5.66 g/m*3 4.7 C 0 km/h
836 13-10-2010 23:14:03 4.6 C 5.62 g/m*3 4.6 C 0 km/h
837 13-10-2010 23:26:03 4.6 C 5.62 g/m*3 4.6 C 0 km/h
838 13-10-2010 23:38:03 4.5 C 5.59 g/m*3 4.5 C 0 km/h
839 13-10-2010 23:50:03 4.2 C 5.54 g/m*3 4.2 C 0 km/h

Legende:
   Min
   Max


Maximal/Minimal-Werte vom 07.10.2010 - 13.10.2010

Sensor Min Max Avg
Temp
(Aussen-T/F)
2.6 °C
12-10-2010  07:48:01
22.5 °C
08-10-2010  16:32:02
12.03 °C
Abs-Feuchte
(Aussen-T/F)
3.36 g/m*3
11-10-2010  17:35:01
11.02 g/m*3
07-10-2010  08:44:02
7.04 g/m*3
Windchill
(Aussen-T/F)
2.6 C
12-10-2010  07:48:01
22.5 C
08-10-2010  16:32:02
12.01 C

Die Daten stammen von einer Davis Vantage Pro 2 Wetter-Station und werden unter Linux mit der Software wview2wettercgi und aufbereitet. Alle Angaben erfolgen ohne Gewähr für ihre Vollständigkeit oder Richtigkeit.
Kontakt: Rainer Krienke krienke@uni-koblenz.de . Meine Webseiten an der Uni Koblenz oder privat.
Version: $Revision: 0.78 $